Weather Roundup
Issued by NWS

Home | Current Version | Previous Version | Graphics & Text | Print | Product List | Glossary Off
Versions: 1 2 3 4 5 6 7 8 9 10 11 12 13 14 15 16 17 18 19 20 21 22 23 24 25 26 27 28 29 30 31 32 33 34 35 36 37 38 39 40 41 42 43 44 45 46 47 48 49 50

824
NZUS93 KARX 171859
HRRWXR

CURRENT HOURLY OBSERVATIONS ACROSS
MUCH OF THE UPPER MISSISSIPPI VALLEY
NATIONAL WEATHER SERVICE LA CROSSE WI
100 PM CST SAT FEB 17 2018


...SOUTHEAST MINNESOTA...


CITY           SKY/WX    TMP DP  RH WIND       PRES   REMARKS
ROCHESTER      CLOUDY    25  22  88 W14       29.87F WCI  13
ROCHESTER/MAYO CLOUDY    27  22  83 SW8       29.88F WCI  19
WINONA         LGT SNOW  30  23  74 W7        29.90F WCI  23
AUSTIN         CLOUDY    27  21  80 W12       29.89F WCI  16
ALBERT LEA     CLOUDY    28  21  74 W9        29.89F WCI  20
DODGE CENTER   CLOUDY    27  21  80 W14       29.87F WCI  15
PRESTON        FLURRIES  26  20  79 W14       29.88F WCI  15
OWATONNA       PTSUNNY   28  25  86 W12       29.89S WCI  18
FARIBAULT      PTSUNNY   30  23  74 W6        29.90S WCI  24
$$

...ELSEWHERE IN MINNESOTA...


CITY           SKY/WX    TMP DP  RH WIND       PRES   REMARKS
MINNEAPOLIS    FAIR      33  25  72 W8        29.88F WCI  26
INTNL FALLS    FAIR      20   3  48 W17G24    29.77R WCI   5
DULUTH         FAIR      27  12  53 W22G31    29.75F WCI  13
RED WING       CLOUDY    28  19  69 W9        29.89S WCI  20
REDWOOD FALLS  SUNNY     36  19  50 NW16G23   29.92R WCI  26
MANKATO        CLOUDY    32  24  72 W10       29.91S WCI  24
WORTHINGTON    SUNNY     32  26  78 W22       29.94R WCI  19
FAIRMONT       MOSUNNY   31  25  78 W14       29.93R WCI  21
$$

...SOUTHWEST WISCONSIN...


CITY           SKY/WX    TMP DP  RH WIND       PRES   REMARKS
LA CROSSE      LGT SNOW  27  23  85 S8        29.91F VSB 1   WCI  19
PRAIRIE DU CHI MIX PCPN  26  23  89 CALM      29.93F
BOSCOBEL       SNOW      27  23  85 SW3       29.92F VSB 1/2
LONE ROCK      NOT AVBL
PLATTEVILLE      N/A     28  23  82 W6        29.93F VSB 1   WCI  21
FORT MC COY    LGT SNOW  25  22  91 S5        29.91F VSB 3/4 WCI  19
CAMP DOUGLAS   LGT SNOW  27  21  80 W7        29.89F VSB 7/8 WCI  19
MAUSTON-NEW LI FLURRIES  28  17  64 SW8       29.89F WCI  19
VIROQUA        CLOUDY    23  22  96 SW7       29.89F VSB 3/4 WCI  15
WIS DELLS      CLOUDY    27  18  69 SW6       29.90F WCI  20
$$

...ELSEWHERE IN WISCONSIN...


CITY           SKY/WX    TMP DP  RH WIND       PRES   REMARKS
MILWAUKEE      CLOUDY    32  15  49 SW12      29.95F WCI  23
MADISON        CLOUDY    28  15  58 SW7       29.92F WCI  21
GREEN BAY      LGT SNOW  24  17  74 SW13      29.90F WCI  12
EAU CLAIRE     NOT AVBL
BLACK RVR FLS  LGT SNOW  26  21  82 SW6       29.89F VSB 3/4 WCI  19
MEDFORD        LGT SNOW  22  19  87 SW7       29.82F VSB 1   WCI  13
WAUSAU         LGT SNOW  22  19  89 SW8       29.83F VSB 3/4 WCI  12
WIS RAPIDS     LGT SNOW  23  18  81 S6        29.88F VSB 3/4 WCI  16
MARSHFIELD     SNOW      23  21  92 W9        29.84F VSB 1/4 WCI  13
RICE LAKE      PTSUNNY   29  21  72 SW7       29.86F WCI  22
$$

...NORTHEAST IOWA...


CITY           SKY/WX    TMP DP  RH WIND       PRES   REMARKS
WATERLOO       CLOUDY    27  23  85 W13       29.93F WCI  16
DUBUQUE        SNOW      25  23  92 SW8       29.90F VSB 1/4 WCI  16
DECORAH        LGT SNOW  25  23  93 SW8       29.89F WCI  16
MASON CITY     CLOUDY    28  23  81 W16       29.92S WCI  16
CHARLES CITY   PTSUNNY   27  27 100 SW13      29.91F WCI  16
OELWEIN        LGT SNOW  27  27 100 SW8       29.91F WCI  18
$$

...ELSEWHERE IN IOWA...


CITY           SKY/WX    TMP DP  RH WIND       PRES   REMARKS
DES MOINES     PTSUNNY   35  27  72 W20       29.96S WCI  24
IOWA CITY      SNOW      31  27  85 SW7       29.95F VSB 1/2 WCI  24
FORT DODGE     CLOUDY    33  24  69 NW13      29.96R WCI  24
MARSHALLTOWN   PTSUNNY   29  25  85 W12       29.93S WCI  19
CEDAR RAPIDS   SNOW      29  26  89 SW7       29.92F VSB 1/2 WCI  22
$$

...NORTHERN ILLINOIS...


CITY           SKY/WX    TMP DP  RH WIND       PRES   REMARKS
CHICAGO-OHARE  CLOUDY    34  24  67 SW13      29.96F WCI  25
CHICAGO-MIDWAY CLOUDY    35  26  69 SW12      29.97F WCI  27
MOLINE         SNOW      32  30  92 SW7       29.93F VSB 1/4 WCI  26
ROCKFORD       CLOUDY    30  24  78 S12       29.95F WCI  20
PEORIA         LGT SNOW  32  31  96 SW12      29.96F VSB 3/4 WCI  23
$$

NOTE: "FAIR" INDICATES FEW OR NO CLOUDS BELOW 12,000 FEET WITH NO
SIGNIFICANT WEATHER AND/OR OBSTRUCTIONS TO VISIBILITY. WIND
SPEEDS ARE IN MILES-PER-HOUR.




USA.gov is the U.S. government's official web portal to all federal, state and local government web resources and services.